Cosmos 2333 Rocket - Orbit

View from above orbital plane
View from above orbital plane
View from above satellite
View from above satellite

Ground track
Ground track

The orbit data is extracted from the following two-line orbital elements,

1 24298U 96051B   13144.86329323  .00000120  00000-0  91294-4 0  1876
2 24298 070.8700 309.3518 0019109 235.2739 272.0365 14.12433239862237
Epoch (UTC): 24 May 2013 20:43:08
Eccentricity: 0.0019109
inclination: 70.8700°
perigee height: 837 km
apogee height: 865 km
right ascension of ascending node: 309.3518°
argument of perigee: 235.2739°
revolutions per day: 14.12433239
mean anomaly at epoch: 272.0365°
orbit number at epoch: 86223

The dashed part of the orbit path shows where the satellite is in the earth's shadow,  

Developed and maintained by Chris Peat, Heavens-Above GmbH. Please read the updated FAQ before sending e-mail. Imprint. DLR